Wetbulb
59.35 62.96 63.99 65.59 65.34 65.35 65.00 63.86 61.86 60.68 59.64 57.30 56.11 55.68 55.08 55.02 55.02 55.30 55.25 55.31 55.26 54.86 55.03 54.72 54.26 53.91 53.10 51.95 52.08 51.54 51.45 50.70 51.97 52.51 53.73 54.84 55.96 54.16 55.50 56.54 55.00 53.29 52.04
56.29 61.11 63.60 64.47 64.31 64.21 63.99 63.12 61.22 59.94 59.06 58.35 57.86 57.16 56.09 55.21 55.31 55.13 54.73 54.68 54.29 54.46 54.43 54.21 53.86 53.31 52.37 51.68 51.41 51.62 50.54 50.20 51.10 50.64 50.94 49.13 51.48 52.45 53.30 55.34 53.84 51.53 51.98
53.64 56.49 61.05 63.30 63.92 63.12 63.07 62.38 60.88 58.33 57.91 58.88 56.57 55.45 54.41 53.80 53.15 53.15 53.45 53.37 53.44 53.57 53.81 53.89 53.76 53.20 53.03 51.81 51.43 51.20 50.52 49.15 49.66 50.20 49.98 47.60 46.79 48.77 51.75 51.37 52.71 50.31 51.09
53.17 55.66 58.95 61.43 63.11 63.43 62.99 62.15 61.57 57.96 55.77 56.07 54.37 54.08 53.88 52.41 53.63 52.87 53.12 52.42 53.02 53.13 53.24 53.35 53.30 53.16 52.73 51.86 51.29 51.08 50.53 50.91 48.38 49.64 49.35 49.80 49.08 47.01 46.57 50.43 51.14 49.88 49.54
53.17 53.57 54.91 60.24 62.50 63.34 61.74 61.60 60.44 58.25 55.88 53.74 54.55 52.90 53.00 53.74 53.28 52.61 51.94 51.53 52.37 52.90 52.59 52.99 52.89 52.69 52.60 52.26 51.47 50.67 50.07 50.23 49.36 48.96 48.95 48.76 48.87 48.49 47.36 45.76 47.42 49.87 50.24
51.54 52.08 53.92 56.04 60.52 62.29 61.09 60.21 58.68 56.94 54.27 53.04 52.88 52.12 51.37 51.17 51.56 50.96 50.38 50.05 51.03 51.48 51.97 52.43 52.77 52.68 52.33 51.86 51.33 50.89 50.28 49.70 49.45 49.22 48.81 48.21 47.50 46.67 46.80 46.02 46.37 45.82 48.94
51.17 50.24 50.21 52.05 55.95 58.76 59.98 58.92 57.40 55.15 53.18 52.13 52.33 51.67 51.06 51.38 51.93 51.19 50.56 49.36 49.73 50.38 50.99 51.83 51.77 51.95 52.29 51.85 51.35 50.75 50.42 50.19 49.54 49.09 48.65 48.99 48.26 48.64 47.68 46.71 46.18 45.07 47.71
48.90 47.75 48.21 51.42 53.30 55.35 56.80 56.24 55.58 54.25 52.92 52.07 51.76 50.61 51.31 52.23 52.57 52.11 51.24 50.40 50.27 50.64 51.68 51.54 51.80 51.60 51.59 51.34 51.00 50.61 50.20 50.32 49.71 48.63 48.61 48.64 48.49 48.79 48.13 46.79 44.95 43.66 45.65
47.36 47.15 47.16 49.87 52.87 53.65 54.76 55.00 54.63 53.16 51.86 50.87 49.96 49.53 50.58 51.66 51.46 51.56 51.54 50.97 51.02 50.20 50.77 51.15 50.81 50.88 50.76 50.43 50.09 49.28 48.39 48.75 48.35 47.68 47.35 47.40 47.07 47.44 47.59 47.29 46.53 44.03 41.22
45.11 46.09 47.51 49.58 52.02 53.60 54.04 54.79 54.49 52.02 51.68 49.84 49.42 48.45 50.03 50.33 50.68 50.15 49.46 49.39 49.51 49.42 50.21 50.09 49.55 48.94 48.70 48.64 48.25 47.04 46.81 46.13 45.70 45.70 45.04 45.03 45.26 45.16 45.63 45.59 45.43 44.99 42.91
44.76 45.75 46.67 48.98 51.64 52.96 53.39 53.35 52.53 51.22 49.55 49.26 48.59 48.29 49.59 49.57 49.52 49.17 48.99 48.90 48.93 49.04 48.60 48.09 47.06 46.53 46.11 46.30 45.89 45.33 44.87 44.51 44.42 44.81 44.33 42.83 43.03 43.78 44.09 44.13 43.86 43.25 42.81
43.84 44.77 45.06 46.69 48.47 50.11 51.28 51.09 51.24 49.60 48.95 47.78 47.69 48.52 47.41 47.91 47.26 46.27 46.20 47.69 46.87 47.03 46.11 45.89 45.23 44.97 45.02 45.42 45.00 43.69 43.94 42.89 41.24 40.12 39.53 38.56 38.86 38.95 39.71 39.86 39.27 39.71 40.56
42.98 43.70 44.36 44.42 45.27 46.70 47.87 48.17 47.82 46.83 46.85 47.03 48.17 46.63 45.04 46.91 44.61 44.66 45.86 45.75 45.28 45.02 44.73 44.11 43.21 42.93 42.40 41.50 41.07 40.32 39.54 39.31 39.03 38.62 38.02 37.73 37.83 37.65 38.36 38.35 38.35 38.81 38.48
42.74 43.31 43.95 43.56 43.88 44.46 44.37 44.21 43.89 45.15 45.43 46.01 46.15 45.50 44.18 44.14 44.49 43.71 43.21 43.27 43.67 42.24 41.44 41.23 40.55 40.13 39.84 39.80 39.28 38.76 38.31 38.09 37.93 37.73 37.45 37.32 36.97 36.67 37.30 37.56 38.03 37.79 37.15
41.80 42.87 43.94 43.94 41.97 42.01 42.32 42.04 42.51 43.48 44.67 44.26 43.40 41.93 41.93 41.94 41.14 40.10 39.45 38.82 38.38 38.08 37.92 37.78 38.50 39.03 38.97 38.57 38.43 38.20 37.68 36.98 36.59 36.57 36.59 36.94 36.29 35.99 37.15 36.95 36.75 36.51 35.79
41.65 42.71 43.33 43.62 42.71 42.42 42.07 42.02 42.30 43.02 44.28 42.25 39.70 38.93 38.61 38.16 37.20 36.28 35.29 35.66 35.66 35.93 36.17 35.99 36.25 37.37 37.74 38.51 38.02 37.50 36.98 35.90 35.42 35.28 35.87 35.96 35.29 35.45 35.28 35.79 36.62 37.07 35.40
42.00 42.21 42.33 42.66 42.43 42.30 42.42 42.03 41.40 41.29 40.84 38.80 37.87 36.93 36.13 35.06 34.94 35.01 34.69 34.51 34.45 34.75 34.44 34.64 34.99 35.76 36.95 37.02 36.99 36.08 36.03 35.34 35.18 34.81 34.85 34.46 35.06 34.98 35.28 35.75 36.20 36.46 36.71
42.33 42.62 42.75 42.25 41.42 40.02 38.55 37.83 38.45 38.17 37.12 35.89 34.39 34.45 34.35 33.61 33.74 33.40 32.97 33.42 34.08 33.63 33.32 33.35 33.85 34.20 34.78 35.60 36.36 34.92 35.42 35.28 34.87 34.69 34.35 34.07 34.50 35.14 35.16 35.70 35.50 35.69 36.20
44.02 43.48 43.75 42.33 40.28 38.35 38.45 37.40 36.46 35.50 33.05 33.28 32.88 33.30 33.77 33.02 33.04 32.73 32.61 32.53 32.61 33.12 32.98 32.99 32.87 33.42 33.35 34.47 35.04 34.81 34.83 34.18 34.01 34.24 34.52 34.55 34.43 34.65 35.56 35.02 34.27 34.64 35.49
43.51 42.89 42.12 39.64 38.25 36.97 37.25 35.34 34.31 34.48 33.63 33.59 33.28 33.59 33.97 33.43 32.36 32.62 32.66 32.86 33.11 32.31 32.43 31.97 32.84 32.05 32.98 33.47 33.67 34.36 34.35 33.14 33.20 33.74 34.07 33.88 34.27 34.83 35.39 34.74 33.90 32.36 33.90
41.42 40.92 38.26 36.47 35.47 35.77 35.91 34.64 33.99 32.55 33.60 33.76 33.61 33.69 33.86 33.33 33.49 32.67 32.78 32.81 32.37 31.75 31.80 31.61 32.04 32.34 32.50 32.34 32.43 32.94 33.59 32.74 32.16 32.44 32.95 33.97 33.80 34.68 35.38 35.54 34.16 33.45 34.83
37.26 37.00 36.24 33.83 33.96 34.70 33.77 32.11 31.18 31.90 32.21 32.17 31.54 31.59 31.73 31.49 31.77 31.37 31.24 31.45 31.29 30.57 30.36 30.52 30.58 31.27 31.74 30.99 31.75 32.65 33.03 33.39 32.41 32.04 33.16 33.74 34.08 34.87 34.80 34.79 34.63 34.68 34.46
35.11 34.66 32.39 31.82 32.94 33.57 33.50 30.68 30.46 31.73 31.40 31.19 30.73 31.13 31.27 31.31 31.42 30.72 30.04 29.72 30.24 29.72 28.86 29.02 28.96 29.80 31.12 31.71 31.10 31.92 32.36 33.13 32.90 33.49 33.44 33.94 34.06 34.29 34.18 33.76 33.37 33.04 32.29
32.26 32.17 31.42 30.24 30.39 32.43 32.32 31.60 32.34 32.40 31.70 30.42 30.01 29.98 29.70 29.91 30.14 30.09 29.99 29.51 28.95 28.23 28.28 28.24 28.61 29.40 30.12 30.89 31.89 32.33 33.25 32.75 32.74 32.87 33.40 33.38 33.58 33.48 32.52 31.86 31.71 31.54 31.29
30.02 30.61 30.08 29.79 29.48 30.55 30.86 31.59 32.16 32.24 30.61 29.95 29.48 29.43 29.85 29.03 28.74 29.07 29.23 29.07 29.48 29.60 29.04 29.45 29.61 28.86 28.87 30.43 31.87 32.08 31.86 32.58 32.45 32.74 32.66 31.27 30.65 29.78 29.88 30.13 30.30 30.38 29.91
28.87 28.32 28.39 28.78 29.22 29.40 29.44 30.46 31.27 30.85 29.52 28.29 28.72 28.59 28.12 28.18 28.26 28.02 27.32 29.18 30.08 30.65 30.45 30.26 30.57 31.21 30.92 31.16 31.60 31.80 32.01 32.18 32.59 31.37 29.34 28.70 28.48 27.84 27.82 27.07 26.72 27.28 27.35
MSLP
1008.39 1008.91 1010.21 1010.98 1011.80 1012.70 1013.02 1013.70 1014.46 1015.14 1015.81 1016.50 1017.04 1017.61 1017.99 1018.68 1019.14 1019.42 1019.79 1020.02 1020.47 1020.60 1020.69 1020.85 1021.00 1021.27 1021.41 1021.63 1021.68 1021.80 1021.75 1021.87 1022.03 1021.76 1021.98 1022.09 1022.24 1022.24 1022.25 1022.19 1022.06 1022.16 1022.24
1008.34 1008.34 1009.14 1010.12 1011.03 1012.05 1012.55 1013.02 1013.85 1014.50 1015.30 1015.89 1016.33 1017.01 1017.69 1018.41 1018.86 1019.44 1019.77 1020.03 1020.29 1020.60 1020.65 1020.80 1020.98 1021.23 1021.59 1021.80 1021.83 1021.76 1021.86 1022.07 1022.22 1021.69 1021.66 1021.52 1022.06 1022.19 1022.40 1022.34 1022.29 1022.27 1022.27
1006.90 1007.75 1008.44 1008.94 1010.14 1011.30 1012.00 1012.24 1012.94 1014.08 1014.72 1015.28 1016.23 1017.09 1018.06 1018.58 1018.95 1019.46 1019.73 1019.96 1020.18 1020.59 1020.64 1020.80 1020.96 1021.31 1021.55 1021.89 1022.01 1021.98 1021.88 1021.92 1022.44 1022.35 1021.87 1021.64 1021.47 1021.93 1022.28 1022.38 1022.40 1022.41 1022.31
1006.35 1006.63 1007.62 1008.19 1008.83 1009.79 1011.31 1011.83 1012.32 1013.41 1014.13 1014.83 1015.61 1016.04 1016.59 1017.32 1017.84 1018.78 1019.45 1019.88 1020.20 1020.55 1020.70 1020.89 1021.08 1021.28 1021.69 1021.99 1022.22 1022.23 1022.19 1022.04 1022.17 1022.49 1022.63 1022.69 1022.47 1021.96 1021.77 1022.25 1022.42 1022.51 1022.54
1005.61 1005.97 1006.95 1007.52 1007.95 1009.08 1010.12 1011.35 1012.06 1013.20 1013.88 1014.41 1014.86 1015.61 1016.29 1016.88 1017.65 1018.56 1019.21 1019.79 1020.23 1020.42 1020.76 1020.96 1021.21 1021.47 1021.75 1022.08 1022.33 1022.44 1022.40 1022.42 1022.41 1022.48 1022.75 1022.90 1022.90 1022.78 1022.40 1021.97 1022.23 1022.33 1022.62
1005.06 1005.79 1006.53 1007.64 1007.92 1008.80 1009.57 1010.96 1011.69 1012.73 1013.52 1014.29 1014.77 1015.32 1015.95 1016.54 1017.28 1018.09 1018.90 1019.65 1020.04 1020.46 1020.74 1020.98 1021.16 1021.58 1021.87 1022.20 1022.46 1022.57 1022.64 1022.72 1022.90 1023.02 1023.10 1023.05 1023.03 1023.11 1023.01 1022.82 1022.78 1022.85 1022.64
1004.83 1005.48 1006.63 1007.51 1007.84 1008.45 1008.67 1010.13 1010.87 1011.98 1013.12 1014.03 1014.66 1015.17 1015.72 1016.28 1016.75 1017.55 1018.29 1019.13 1019.58 1020.15 1020.64 1020.77 1021.24 1021.56 1021.91 1022.29 1022.55 1022.72 1022.93 1023.09 1023.12 1023.28 1023.52 1023.64 1023.72 1023.85 1023.83 1023.72 1023.38 1023.32 1022.96
1005.40 1005.77 1006.12 1006.81 1007.51 1008.16 1009.36 1009.55 1009.52 1011.13 1012.63 1013.71 1014.45 1014.91 1015.55 1016.06 1016.65 1017.22 1017.85 1018.53 1019.18 1019.74 1020.24 1020.64 1021.06 1021.52 1021.96 1022.31 1022.68 1022.88 1023.13 1023.38 1023.56 1023.70 1023.93 1024.07 1024.20 1024.24 1024.29 1024.26 1024.13 1023.47 1023.09
1005.50 1006.11 1006.56 1006.54 1006.93 1007.71 1008.77 1009.07 1009.31 1009.93 1011.44 1013.21 1014.52 1015.19 1015.55 1015.90 1016.38 1017.17 1017.87 1018.40 1018.92 1019.53 1020.15 1020.66 1021.02 1021.52 1021.91 1022.32 1022.74 1022.99 1023.25 1023.45 1023.78 1024.06 1024.29 1024.42 1024.60 1024.59 1024.69 1024.75 1024.66 1024.43 1023.69
1005.78 1006.19 1006.82 1007.15 1007.14 1007.47 1008.41 1009.25 1009.06 1009.92 1011.49 1011.68 1013.21 1014.85 1015.77 1016.29 1016.70 1017.23 1018.09 1018.68 1019.07 1019.64 1020.14 1020.66 1021.12 1021.59 1022.06 1022.44 1022.76 1023.17 1023.43 1023.67 1024.07 1024.33 1024.55 1024.79 1024.90 1024.87 1025.01 1025.08 1025.02 1024.98 1024.69
1006.42 1006.76 1007.22 1007.65 1007.62 1007.67 1008.17 1009.03 1009.64 1010.56 1011.02 1011.61 1013.28 1013.99 1015.82 1016.37 1016.56 1017.25 1018.29 1018.86 1019.44 1019.94 1020.38 1020.82 1021.37 1021.88 1022.29 1022.59 1022.93 1023.34 1023.71 1023.99 1024.33 1024.66 1024.90 1025.22 1025.21 1025.14 1025.20 1025.33 1025.34 1025.22 1025.21
1007.27 1007.56 1007.84 1007.95 1008.12 1008.31 1008.60 1009.14 1010.11 1010.76 1011.51 1011.21 1013.16 1014.70 1015.78 1016.69 1015.90 1017.53 1018.52 1019.25 1019.60 1020.45 1020.77 1021.07 1021.71 1022.25 1022.62 1022.87 1023.21 1023.63 1024.00 1024.30 1024.69 1025.00 1025.20 1025.45 1025.52 1025.50 1025.57 1025.54 1025.53 1025.50 1025.40
1007.42 1007.83 1008.21 1008.40 1008.46 1008.70 1009.17 1009.50 1010.21 1011.08 1011.64 1012.36 1013.69 1015.10 1015.58 1015.84 1017.05 1018.23 1018.06 1019.40 1020.06 1021.05 1021.21 1021.50 1022.01 1022.66 1023.14 1023.41 1023.76 1024.06 1024.42 1024.76 1025.13 1025.34 1025.50 1025.67 1025.71 1025.62 1025.78 1025.77 1025.67 1025.61 1025.53
1007.44 1007.89 1008.32 1008.68 1008.97 1009.21 1009.42 1010.00 1010.69 1011.35 1012.10 1013.00 1014.27 1015.06 1015.34 1016.51 1017.26 1018.86 1018.84 1019.51 1020.98 1021.25 1021.46 1021.91 1022.39 1022.94 1023.51 1023.94 1024.29 1024.50 1024.81 1025.20 1025.42 1025.64 1025.82 1025.89 1025.94 1025.99 1025.93 1025.82 1025.70 1025.66 1025.55
1007.15 1007.77 1008.17 1008.92 1009.38 1009.72 1010.11 1010.40 1011.24 1012.02 1012.97 1013.77 1014.60 1015.42 1015.94 1017.42 1016.95 1019.65 1020.12 1020.49 1021.24 1021.55 1021.90 1022.27 1023.07 1023.50 1023.79 1024.33 1024.73 1024.90 1025.12 1025.34 1025.54 1025.85 1026.02 1026.12 1026.46 1026.54 1026.37 1026.13 1025.83 1025.72 1025.42
1006.43 1007.39 1008.15 1008.66 1009.47 1010.05 1010.42 1010.97 1011.71 1012.66 1013.55 1014.37 1015.16 1016.00 1016.67 1016.99 1019.10 1020.17 1020.36 1021.20 1021.13 1022.42 1022.55 1022.74 1022.97 1024.30 1024.40 1024.86 1025.39 1025.19 1025.21 1025.62 1025.83 1025.91 1026.03 1026.14 1026.30 1026.25 1026.42 1026.39 1026.21 1026.02 1025.62
1005.65 1006.70 1007.57 1008.35 1009.22 1010.11 1010.86 1011.13 1012.16 1013.13 1013.90 1015.05 1015.88 1016.45 1017.26 1018.26 1019.57 1020.23 1020.59 1021.34 1021.64 1022.98 1023.25 1023.47 1023.70 1024.31 1024.88 1025.35 1025.67 1025.72 1025.50 1025.74 1025.90 1026.01 1026.06 1026.09 1026.08 1026.31 1026.09 1025.92 1025.78 1025.52 1025.45
1004.81 1005.97 1007.06 1008.20 1009.25 1010.54 1011.45 1011.72 1012.44 1013.39 1014.25 1015.60 1016.67 1017.47 1018.04 1018.93 1020.04 1020.32 1021.02 1021.68 1022.57 1022.85 1023.61 1024.17 1024.23 1024.92 1025.42 1025.74 1025.81 1025.92 1025.64 1025.78 1025.92 1026.05 1026.05 1026.04 1025.94 1025.98 1026.11 1025.62 1025.37 1025.12 1024.92
1003.84 1005.30 1006.60 1007.78 1009.28 1010.34 1011.44 1011.91 1012.88 1013.35 1014.47 1015.33 1016.95 1017.77 1018.47 1019.27 1019.90 1020.66 1021.58 1022.31 1022.73 1023.37 1023.81 1024.41 1024.88 1025.29 1025.74 1025.89 1025.98 1025.73 1025.70 1025.83 1025.81 1025.94 1026.00 1026.10 1025.91 1025.86 1025.80 1025.45 1025.08 1024.76 1024.50
1004.14 1005.49 1006.75 1008.22 1009.22 1010.39 1011.11 1012.20 1013.36 1014.25 1014.97 1016.25 1016.70 1018.28 1018.99 1019.40 1020.49 1021.20 1021.81 1022.69 1023.16 1023.54 1024.41 1024.79 1025.27 1025.68 1025.80 1026.09 1026.01 1025.73 1025.71 1025.67 1025.68 1025.78 1025.90 1025.97 1025.89 1025.79 1025.62 1025.31 1024.92 1024.56 1024.21
1005.07 1006.13 1007.50 1008.55 1009.68 1010.60 1011.20 1012.04 1013.48 1014.63 1015.63 1016.71 1017.73 1018.66 1019.34 1020.16 1020.91 1021.60 1022.30 1022.76 1023.59 1024.21 1024.54 1024.81 1025.24 1025.71 1025.90 1026.06 1026.00 1025.93 1025.75 1025.64 1025.62 1025.57 1025.50 1025.52 1025.78 1025.72 1025.40 1025.00 1024.70 1024.43 1024.25
1006.42 1007.59 1007.62 1009.07 1010.39 1011.37 1011.71 1012.52 1014.02 1015.13 1016.03 1017.08 1018.64 1019.21 1020.05 1020.79 1021.45 1021.83 1022.72 1023.35 1023.96 1024.24 1024.55 1024.77 1025.24 1025.75 1025.90 1026.07 1025.92 1025.83 1025.77 1025.69 1025.54 1025.46 1025.49 1025.45 1025.49 1025.22 1024.95 1024.69 1024.47 1024.33 1024.03
1007.74 1008.40 1009.13 1009.31 1010.82 1011.99 1012.24 1013.29 1014.82 1015.59 1016.42 1017.41 1019.07 1019.63 1020.37 1021.22 1022.01 1022.40 1023.08 1023.57 1024.03 1024.26 1024.57 1024.85 1025.25 1025.51 1025.67 1025.60 1025.75 1025.81 1025.82 1025.76 1025.63 1025.30 1025.26 1025.23 1025.02 1024.79 1024.50 1024.27 1024.20 1023.97 1023.64
1008.93 1009.44 1009.70 1010.64 1011.26 1012.35 1013.38 1013.97 1015.15 1016.20 1016.97 1018.06 1019.23 1020.33 1021.02 1021.79 1022.38 1022.91 1023.31 1023.62 1023.99 1024.31 1024.60 1024.98 1025.23 1025.38 1025.39 1025.43 1025.50 1025.54 1025.36 1025.38 1025.33 1025.14 1024.78 1024.78 1024.79 1024.57 1024.35 1024.06 1023.73 1023.61 1023.49
1010.05 1010.46 1010.54 1011.53 1012.51 1013.15 1014.10 1015.25 1015.85 1016.66 1017.85 1018.95 1019.90 1020.78 1021.54 1022.20 1022.73 1023.12 1023.41 1023.74 1024.21 1024.46 1024.60 1024.87 1025.11 1025.25 1025.25 1025.35 1025.51 1025.39 1025.23 1025.03 1024.90 1024.77 1024.49 1024.50 1024.37 1024.14 1023.86 1023.74 1023.69 1023.63 1023.51
1011.36 1011.83 1012.22 1012.62 1013.72 1014.45 1015.30 1016.26 1016.95 1017.58 1018.33 1019.42 1020.51 1021.30 1021.96 1022.45 1022.73 1023.15 1023.77 1024.30 1024.38 1024.50 1024.74 1024.98 1025.09 1025.07 1025.33 1025.42 1025.31 1025.19 1025.06 1024.91 1024.67 1024.56 1024.49 1024.30 1024.18 1024.02 1023.98 1024.07 1024.01 1023.84 1023.63
Wind_Speed
10 13 16 17 14 16 18 19 18 17 13 11 10 8 8 7 6 6 8 8 6 7 6 5 6 4 3 4 3 4 4 5 3 4 3 3 2 2 1 1 2 5 5
12 16 18 17 17 17 19 19 18 17 15 11 10 6 9 7 6 6 7 7 8 7 6 7 6 5 4 4 4 3 3 4 3 1 1 3 4 2 2 1 3 5 4
18 18 18 20 18 18 18 19 20 18 14 15 10 8 7 6 6 7 7 7 8 7 7 7 6 6 4 3 4 4 2 4 4 5 2 2 2 0 2 2 2 6 3
18 17 16 17 20 19 16 16 19 19 14 16 13 16 11 11 8 9 7 7 8 8 7 7 7 6 4 5 4 3 3 2 4 3 5 5 4 2 2 3 1 4 4
18 17 18 19 20 16 16 15 16 18 16 15 14 11 10 7 8 8 11 8 8 8 8 8 8 7 4 5 5 5 4 4 4 3 3 3 3 3 2 1 2 1 2
18 13 11 13 14 14 16 16 17 15 15 14 13 14 13 11 11 11 10 8 7 6 8 8 7 7 6 6 5 5 5 5 4 4 3 3 2 2 2 2 3 4 2
16 12 12 15 16 16 18 18 19 17 15 15 15 12 12 12 15 14 10 12 8 7 9 9 8 7 7 6 6 5 5 4 4 4 3 3 3 2 2 2 3 3 3
9 8 10 11 12 14 15 17 22 18 16 15 14 11 11 8 9 12 11 9 9 9 11 9 8 9 8 7 6 5 4 5 4 5 3 3 3 2 1 2 3 4 3
11 10 8 11 13 14 18 16 18 19 20 16 10 8 9 12 11 12 11 9 10 9 10 10 10 9 8 7 6 5 5 5 4 4 4 3 3 2 2 1 2 3 4
9 8 7 10 11 13 13 16 15 18 16 20 15 10 11 10 12 12 11 11 10 11 12 11 10 9 8 7 7 6 5 6 4 3 4 4 3 3 2 1 1 3 4
6 6 5 6 9 10 13 14 15 18 19 16 11 15 12 13 13 11 11 11 11 11 11 11 10 9 9 8 7 7 7 7 6 5 5 5 4 3 2 2 2 3 3
5 5 5 7 9 10 12 15 13 13 13 15 14 15 15 13 13 12 11 11 12 10 11 11 11 10 9 8 8 8 6 6 6 5 5 4 3 3 3 3 3 3 3
5 5 6 7 9 10 12 13 13 12 13 14 15 15 12 14 12 12 15 13 13 12 12 12 12 11 9 9 8 8 7 6 5 4 4 4 3 3 3 4 4 4 4
7 7 7 8 9 11 12 12 12 12 13 14 14 15 14 14 15 13 14 14 13 13 13 12 12 11 10 9 8 7 6 5 5 4 3 3 3 4 4 4 5 5 6
11 11 10 9 9 10 10 12 11 12 13 14 14 13 14 14 17 14 13 14 13 12 13 13 11 10 9 6 6 6 5 4 4 3 2 3 4 3 5 5 6 7 7
13 13 12 12 12 11 12 11 12 13 15 15 15 15 14 16 13 14 12 13 14 12 11 12 12 9 6 10 7 4 4 4 2 2 2 3 2 4 5 7 8 8 8
15 17 16 15 13 13 13 16 16 13 15 15 15 16 15 16 15 14 15 13 13 11 10 10 10 9 8 7 6 6 4 3 3 1 2 3 3 4 5 7 9 9 9
17 18 16 15 15 15 14 14 15 17 18 17 14 14 14 15 13 12 12 13 11 11 9 8 8 7 5 5 7 5 4 2 1 2 3 4 5 5 7 8 8 8 8
17 17 17 18 16 16 17 18 17 17 16 17 15 14 15 15 14 14 12 9 10 9 8 7 6 6 6 5 5 2 1 1 2 3 3 4 5 6 10 9 9 9 9
14 17 19 18 18 19 19 18 17 17 18 17 17 15 13 14 13 13 12 9 9 9 6 7 5 5 6 5 3 3 1 3 3 3 4 4 6 10 11 9 9 10 10
15 19 20 18 18 18 17 19 19 17 16 16 16 15 14 14 13 12 10 9 8 7 6 6 5 5 4 3 3 3 3 3 3 4 4 4 7 11 12 12 9 9 12
17 16 18 17 16 15 17 18 17 16 16 16 14 13 13 9 9 12 9 9 7 7 6 5 5 3 2 1 1 4 4 5 5 5 5 6 10 13 12 11 11 15 13
14 15 14 19 17 16 16 18 16 16 16 16 14 13 13 11 9 10 9 7 6 5 5 4 3 2 1 1 2 5 5 5 6 5 8 13 12 12 10 10 14 14 7
13 14 18 17 17 16 15 18 17 17 16 16 14 12 11 10 8 6 5 5 5 4 4 3 2 1 1 1 1 2 3 4 6 7 7 8 10 11 10 9 7 6 6
11 12 15 15 15 16 17 15 15 16 15 14 12 11 8 8 8 6 5 5 4 3 4 2 0 1 1 1 5 6 6 6 7 10 6 6 6 7 7 6 6 6 6
11 12 14 17 16 15 15 13 12 13 13 12 9 7 7 6 6 6 6 5 4 4 2 1 3 2 3 5 8 8 9 10 12 6 6 7 7 7 7 7 7 7 8
Wind_Direction
220 190 202 197 187 199 189 190 183 179 169 167 165 166 172 167 165 164 162 163 163 156 153 141 133 133 120 104 113 101 93 86 95 147 142 131 114 80 112 66 53 30 35
213 196 191 192 192 197 198 185 187 176 181 175 171 170 164 172 163 159 164 164 161 162 159 149 139 135 134 120 106 151 124 85 39 116 193 163 160 143 85 57 34 26 31
231 207 190 188 189 196 201 193 185 180 180 173 157 145 135 135 159 170 166 166 161 164 159 150 144 134 134 120 100 86 98 123 75 52 349 183 76 256 140 98 79 11 33
231 233 201 187 188 193 195 194 187 182 172 169 170 171 177 171 180 171 169 160 164 161 154 146 143 136 134 134 112 98 97 108 115 104 63 49 16 11 168 142 108 11 30
234 220 202 197 191 181 183 192 187 185 178 175 175 168 166 163 154 161 161 161 165 158 153 150 143 143 142 132 129 125 100 91 96 84 126 80 75 42 349 25 42 33 45
243 236 202 197 193 187 172 185 180 185 174 176 172 170 161 155 157 161 163 166 162 159 158 154 147 148 140 141 133 120 111 99 98 98 90 73 51 55 9 314 342 327 339
237 244 208 195 191 188 179 183 176 179 175 175 176 170 165 166 168 166 168 164 163 166 166 156 153 151 143 141 139 128 123 115 106 102 97 90 80 65 39 338 352 319 336
247 240 237 217 203 194 197 186 169 169 174 176 179 165 162 169 170 172 167 170 171 167 157 157 153 145 146 144 140 131 121 118 117 108 95 101 90 79 38 352 328 316 280
254 252 232 225 211 199 201 189 180 162 164 167 162 161 161 164 163 163 165 165 159 152 155 154 148 147 145 146 142 131 129 120 110 102 102 96 83 76 59 338 303 313 308
239 236 226 225 216 203 195 194 182 166 179 157 152 155 168 161 152 149 154 156 145 149 152 149 144 140 139 139 133 123 120 117 101 98 101 94 77 79 66 32 316 268 282
266 244 215 216 218 199 189 187 177 171 162 146 147 144 162 155 144 138 144 144 142 147 144 140 134 132 129 127 122 114 116 112 106 96 92 80 54 57 49 26 347 295 284
248 224 220 186 179 185 182 171 165 159 154 130 141 148 147 148 128 133 134 139 134 136 134 129 124 121 119 119 116 112 108 106 100 91 87 71 48 39 20 345 333 311 297
212 198 185 187 165 155 156 147 142 138 130 128 140 145 133 136 126 136 130 134 128 130 126 123 119 117 113 109 105 105 104 99 94 84 67 51 17 9 1 335 323 312 301
221 204 190 177 165 156 140 129 123 126 128 133 144 140 135 138 129 130 126 125 133 128 119 117 115 114 111 107 110 108 107 110 98 86 62 39 2 339 325 309 305 302 303
214 204 187 180 161 148 136 124 121 128 139 138 133 131 123 132 117 129 129 124 122 116 120 115 109 110 112 112 118 118 114 106 105 102 69 45 17 10 349 325 319 308 302
212 198 187 174 167 161 146 133 135 142 144 137 129 127 126 115 126 130 116 121 116 115 115 116 114 114 101 106 108 113 113 113 105 82 57 14 255 344 325 316 303 302 300
207 194 184 175 166 162 158 145 139 137 131 128 129 124 122 123 127 128 122 121 111 122 114 110 113 112 105 107 115 121 114 119 104 36 341 327 331 309 321 305 294 286 290
203 191 179 169 160 153 144 134 135 136 131 127 125 127 124 123 129 116 114 119 126 118 114 112 107 117 102 118 122 127 116 118 84 344 332 317 319 326 317 311 308 305 302
199 186 173 162 154 149 149 137 137 130 128 132 133 133 130 128 124 123 123 119 118 122 113 115 122 133 123 115 108 129 98 340 332 337 313 313 308 323 314 307 300 301 299
177 170 159 154 151 151 143 136 134 139 134 138 131 131 130 124 126 126 122 123 116 111 125 119 118 108 123 97 67 8 357 311 324 311 298 287 310 315 306 302 305 302 307
163 154 153 150 147 148 144 137 140 134 131 128 129 129 127 128 125 120 119 118 119 123 123 122 115 122 106 104 27 7 318 313 305 305 307 306 304 302 298 305 302 309 313
144 156 145 137 140 144 136 132 128 127 125 121 121 120 122 117 120 117 119 122 129 128 126 125 132 132 128 50 20 333 318 314 292 294 299 298 298 297 308 305 312 305 303
148 143 137 132 137 143 139 124 129 127 123 119 124 120 117 119 126 128 129 125 130 131 132 134 139 141 135 348 338 316 307 286 289 294 305 300 302 298 288 297 302 303 292
145 144 136 134 132 134 127 125 132 130 124 122 123 126 126 127 121 120 127 133 138 135 133 140 147 128 327 315 312 295 286 287 282 297 292 306 297 293 289 294 299 308 307
131 138 130 125 122 122 120 123 126 127 125 124 125 127 126 131 131 120 124 124 117 128 135 126 164 261 260 341 305 313 303 312 312 309 312 304 298 300 308 308 308 313 318
117 115 112 113 115 112 112 117 120 122 122 123 128 134 136 135 132 131 125 99 109 134 121 292 270 221 255 297 302 307 309 307 307 305 292 297 307 310 316 318 313 307 302